Location: Clinton NY
(43.0598°N, 75.3602°W)
Time: 12:35:57
(UTC-04:00)

Daily predictions for brighter satellites

Satellite Brightness Start Highest point End
(mag) Time Altitude Azimuth Time Altitude Azimuth Time Altitude Azimuth
NOSS 3-3 (A) 4.4 20:11:37 10° S 20:17:09 40° ESE 20:23:08 10° NE
NOSS 3-3 (C) 4.4 20:11:44 10° S 20:17:15 40° ESE 20:23:13 10° NE
Cosmos 2333 4.3 20:11:49 10° S 20:17:19 57° ESE 20:22:50 10° NNE
Cosmos 1844 Rocket 2.8 20:11:46 10° NNW 20:17:26 66° ENE 20:23:03 10° SE
Cosmos 2263 Rocket 4.4 20:14:46 10° NW 20:19:28 27° WSW 20:24:06 10° SSW
Cosmos 1844 4.0 20:15:09 10° NNW 20:20:45 55° ENE 20:26:23 10° SE
Cosmos 2221 3.1 20:17:14 10° SSW 20:21:27 63° W 20:25:41 10° N
Cosmos 1455 3.2 20:19:51 10° SSE 20:23:03 26° E 20:26:18 10° NNE
Cosmos 44 4.0 20:21:08 10° SW 20:25:32 55° NW 20:30:13 10° NNE
Cosmos 494 Rocket 4.4 20:20:37 10° NNW 20:25:47 66° WSW 20:30:58 10° S
ERS-2 2.1 20:22:21 10° SSE 20:26:00 73° ENE 20:29:40 10° N
Cosmos 2219 Rocket 2.5 20:23:11 10° S 20:28:33 46° ESE 20:33:56 10° NE
Cosmos 1892 3.0 20:24:52 10° N 20:28:39 47° ENE 20:32:24 10° SSE
Cosmos 2237 Rocket 3.2 20:24:56 10° SSE 20:29:14 23° E 20:33:32 10° NE
H-2A R/B 3.9 20:28:06 10° E 20:30:34 14° ENE 20:33:01 10° NNE
Cosmos 2154 Rocket 4.0 20:25:25 10° S 20:31:35 64° E 20:37:45 10° NNE
Cosmos 1805 Rocket 3.7 20:29:44 10° NNW 20:34:06 77° W 20:38:25 10° S
Cosmos 2184 Rocket 4.4 20:29:03 10° SSW 20:35:11 69° W 20:41:21 10° N
Cosmos 2278 Rocket 3.1 20:31:52 10° N 20:37:02 34° NE 20:41:43 12° ESE
CZ-3B R/B 4.0 20:36:12 10° N 20:37:08 13° NNE 20:38:04 10° ENE
Cosmos 1328 Rocket 4.0 20:37:05 10° SSE 20:41:13 41° E 20:45:25 10° NNE
Genesis I 4.0 20:38:30 10° NNW 20:42:23 40° NE 20:45:30 14° ESE
YAOGAN 6 2.5 20:39:28 10° SSE 20:43:02 79° ENE 20:46:42 10° N
Cosmos 2251 Rocket 3.7 20:38:10 10° NNW 20:43:35 83° WSW 20:48:56 10° SSE
Resurs 01 Rocket 1.6 20:39:51 10° SSE 20:44:16 67° ENE 20:48:40 10° N
Cosmos 44 Rocket 4.2 20:43:54 10° SW 20:48:33 52° NW 20:53:22 10° NNE
Envisat 3.7 20:43:37 10° S 20:48:35 55° W 20:53:35 10° NNW
Cosmos 1470 Rocket 4.0 20:47:44 10° N 20:51:56 42° ENE 20:55:28 14° SE
Cosmos 2341 Rocket 4.0 20:47:04 10° S 20:53:20 64° E 20:59:36 10° NNE
ATLAS CENTAUR R/B 1.3 20:52:14 10° SSW 20:55:45 47° ESE 20:59:25 10° NE
Cosmos 1340 3.6 20:53:58 10° SSW 20:57:39 52° WNW 21:01:24 10° N
Cosmos 962 Rocket 4.4 20:52:29 10° S 20:58:34 73° E 21:04:43 10° NNE
Cosmos 2098 Rocket 4.2 20:58:55 17° SE 21:01:10 24° E 21:04:27 10° NE
Aureole 2 4.1 21:02:18 10° S 21:05:15 50° ESE 21:08:08 10° NNE
NOSS 0 Rocket 3.9 21:01:37 10° S 21:07:39 60° ESE 21:13:45 10° NNE
Cosmos 1295 Rocket 4.5 21:01:55 10° S 21:08:15 81° E 21:14:35 10° N
Cosmos 1825 2.6 21:06:24 10° N 21:10:01 41° ENE 21:11:38 26° SE
Thor Agena Rocket 4.3 21:07:32 10° N 21:12:39 56° WNW 21:17:47 10° SSW
Cosmos 2366 rocket 4.3 21:06:59 10° SSE 21:12:48 44° E 21:18:42 10° NNE
BREEZE-M DEB (TANK) 3.9 21:10:58 10° W 21:13:23 26° NNW 21:15:20 10° NE
SL-16 R/B 3.2 21:17:50 23° ESE 21:18:35 24° ESE 21:22:59 10° NE
Cosmos 1939 Rocket 4.1 21:15:57 10° SSW 21:19:34 39° W 21:23:15 10° NNW
Resurs 1-3 4.5 21:15:59 10° S 21:20:13 48° W 21:24:29 10° NNW
USA 186 3.9 21:19:15 10° SW 21:20:40 15° W 21:22:06 10° NW
Cosmos 1933 Rocket 3.5 21:16:18 10° N 21:20:41 72° E 21:23:24 22° SSE
Meteor 2-3 Rocket 4.0 21:15:40 10° NNW 21:21:15 71° W 21:26:50 10° S
SL-8 Rocket 4.0 21:16:10 10° S 21:22:26 71° E 21:28:41 10° NNE
GEOS 3 Rocket 4.2 21:21:04 10° NE 21:25:50 32° ESE 21:30:30 10° S
Cosmos 220 Rocket 4.4 21:22:44 10° NNW 21:27:02 61° WSW 21:29:56 19° S
Terra 3.9 21:26:13 12° ENE 21:27:04 12° ENE 21:28:57 10° NE
ARGOS 3.3 21:25:39 26° SE 21:28:35 57° ENE 21:33:50 10° N
Cosmos 1869 3.4 21:27:19 30° SSE 21:29:00 54° E 21:32:56 10° NNE
Cosmos 1151 Rocket 2.9 21:25:18 10° S 21:29:34 87° WNW 21:33:51 10° N
ATLAS 2AS CENTAUR R/B 3.1 21:22:10 10° NW 21:30:05 75° WSW 21:35:15 21° SSE
Spot 2 Rocket 4.1 21:26:32 10° S 21:31:32 57° W 21:36:34 10° NNW
MetOp-B 4.3 21:30:49 29° SE 21:33:25 55° ENE 21:38:38 10° N
Lacrosse 5 4.2 21:34:47 10° NNW 21:38:13 18° N 21:41:38 10° NE
BREEZE-M DEB (TANK) 4.0 21:32:54 10° W 21:39:04 34° NNW 21:41:03 15° NE
SPOT 5 3.7 21:40:05 28° E 21:40:46 29° ENE 21:44:39 10° N
Cosmos 1869 Rocket 4.1 21:38:43 10° N 21:42:50 38° ENE 21:43:13 37° E
Helios 1B rocket 4.3 21:41:48 10° NE 21:43:25 18° ENE 21:43:25 18° ENE
Cosmos 1980 3.8 21:39:26 10° SSW 21:45:08 81° WNW 21:50:51 10° NNE
Cosmos 2297 4.1 21:42:51 10° NNW 21:48:22 49° ENE 21:50:11 36° ESE
Meteor 2-10 Rocket 3.7 21:46:07 23° S 21:49:41 69° E 21:55:30 10° NNE
Cosmos 2333 Rocket 3.3 21:48:26 10° SW 21:53:50 45° WNW 21:59:16 10° NNE
Cosmos 864 Rocket 4.4 21:49:04 14° S 21:54:24 88° ESE 22:00:35 10° N
Cosmos 2369 Rocket 4.2 21:53:16 10° N 21:56:30 15° NE 21:58:28 13° ENE
Cosmos 1441 Rocket 4.1 21:59:48 34° NE 21:59:48 34° NE 22:02:15 10° NNE
Cosmos 2228 Rocket 4.3 21:54:33 10° SSW 21:58:41 40° WNW 22:02:51 10° N
Helios 1A 3.1 21:59:12 52° E 21:59:22 53° ENE 22:03:28 10° N
Cosmos 1408 3.9 21:56:52 10° NNW 22:00:15 36° W 22:01:43 25° SW
NOSS 3-4 (A) 3.9 21:53:28 10° NNW 22:00:27 66° NE 22:03:34 37° ESE
NOSS 3-4 (C) 3.9 21:53:35 10° NNW 22:00:34 66° NE 22:03:39 37° ESE
SPOT 1/Viking Rocket 3.9 22:00:11 42° E 22:01:06 47° ENE 22:06:05 10° N
USA 81 3.9 21:55:51 10° N 22:01:09 74° E 22:02:39 47° SSE
H-2A R/B 1.9 22:07:50 46° S 22:09:21 81° WSW 22:14:22 10° NNW
Cosmos 407 Rocket 3.3 22:05:01 10° NNW 22:10:10 84° ENE 22:11:08 60° SSE
SL-8 R/B 3.6 22:06:17 10° WSW 22:11:05 87° NNW 22:12:50 40° ENE
ERS-1 Rocket 2.9 22:10:13 51° S 22:11:30 84° WSW 22:16:33 10° NNW
USA 267 3.3 22:05:16 10° NE 22:11:39 54° SE 22:18:01 10° SSW
Cosmos 2219 Rocket 4.2 22:07:50 10° WSW 22:12:41 29° NW 22:17:34 10° N
Cosmos 2237 Rocket 2.9 22:07:24 10° SW 22:12:52 53° WNW 22:18:24 10° NNE
Cosmos 1862 3.3 22:10:17 10° N 22:14:04 75° NNE 22:14:04 75° NNE
Cosmos 614 Rocket 4.3 22:09:27 10° N 22:14:33 49° ENE 22:14:58 48° E
Cosmos 1371 Rocket 4.5 22:13:09 10° SSW 22:18:24 62° WNW 22:23:44 10° NNE
Cosmos 2278 Rocket 3.3 22:15:57 10° NW 22:21:08 38° WSW 22:23:35 25° SSW
Resurs 01 Rocket 4.4 22:19:28 10° WSW 22:21:11 12° W 22:22:54 10° WNW
SL-08 RB Rocket 4.2 22:24:45 45° SW 22:25:32 51° W 22:29:54 10° NNW
Cosmos 405 Rocket 3.5 22:28:05 49° N 22:28:05 49° N 22:31:04 10° N
Cosmos 1000 Rocket 4.4 22:22:15 10° N 22:28:25 69° E 22:29:25 59° SE
ATLAS 5 CENTAUR R/B 4.0 22:24:16 10° NNW 22:28:51 23° NE 22:31:07 19° ENE
Cosmos 1727 Rocket 4.4 22:22:52 10° NNW 22:28:55 59° W 22:31:34 33° SSW
Cosmos 676 Rocket 3.8 22:23:47 10° NNW 22:29:04 77° ENE 22:29:20 75° ESE
Cosmos 1821 Rocket 3.9 22:33:03 60° SE 22:33:53 67° E 22:40:09 10° NNE
ATLAS CENTAUR R/B 4.0 22:32:21 10° W 22:34:59 18° NW 22:37:44 10° N
Cosmos 2056 Rocket 4.3 22:35:44 15° SW 22:40:05 51° WNW 22:45:21 10° N
Cosmos 1452 Rocket 3.8 22:42:01 53° NE 22:42:01 53° NE 22:46:12 10° NNE
Cosmos 1023 Rocket 4.4 22:40:16 10° NNW 22:45:14 82° NNW 22:45:14 82° NNW
USA 234 4.0 22:43:06 31° ENE 22:45:43 46° NNE 22:51:54 10° NW
Landsat 7 3.9 22:46:49 73° NNW 22:46:49 73° NNW 22:51:10 10° NNW
Cosmos 2123 Rocket 4.1 22:43:38 10° N 22:49:52 59° E 22:49:58 58° E
SL-16 R/B 2.9 22:59:33 28° WSW 23:02:18 52° WNW 23:07:50 10° NNE
Cosmos 2344 3.5 22:58:41 32° SSW 23:02:40 85° SE 23:11:06 10° NE
GEOS 3 Rocket 4.5 22:58:48 10° NNE 23:03:58 49° NW 23:09:01 10° WSW
Terra 2.3 23:05:06 57° NNW 23:05:06 57° NNW 23:08:54 10° NNW
Cosmos 1535 Rocket 4.4 23:04:34 79° SSW 23:05:00 87° WNW 23:11:24 10° N
Cosmos 1741 Rocket 4.5 23:01:20 10° NNW 23:05:49 55° NNE 23:05:49 55° NNE
Cosmos 1140 Rocket 3.9 23:02:13 10° NNW 23:06:46 55° WNW 23:06:46 55° WNW
CZ-4C R/B 3.3 23:13:19 33° NE 23:13:19 33° NE 23:16:37 10° NE
Cosmos 1241 Rocket 4.4 23:06:33 10° NNW 23:12:48 82° NE 23:12:48 82° NE
CZ-2C R/B 3.7 23:14:25 46° N 23:14:25 46° N 23:17:50 10° N
Cosmos 1943 Rocket 3.2 23:08:48 10° N 23:13:21 35° NE 23:13:21 35° NE
SPOT 5 4.4 23:19:19 28° W 23:19:19 28° W 23:22:43 10° NW
Meteor 1-14 Rocket 4.4 23:13:18 10° N 23:18:03 66° N 23:18:03 66° N
Helios 1B rocket 4.2 23:16:44 10° N 23:19:46 30° NW 23:19:46 30° NW
Lacrosse 5 3.0 23:17:41 10° NW 23:21:58 38° NNE 23:21:58 38° NNE
Cosmos 1605 Rocket 4.1 23:24:41 72° NE 23:24:41 72° NE 23:30:29 10° N
Cosmos 1603 4.4 23:30:41 48° NNE 23:30:41 48° NNE 23:34:41 10° NNE
Cosmos 2369 Rocket 2.7 23:35:46 10° NNW 23:40:15 56° N 23:40:15 56° N
Mayak 1.7 23:47:20 10° NE 23:47:28 11° NE 23:47:28 11° NE
